Weather History for Douglas Bisbee, AZ

Change the Weather History Date:

Thursday, April 4, 2013

  Actual Average Record
Temperature  
Mean Temperature 60 °F 58 °F  
Max Temperature 82 °F 76 °F 89 °F (1989)
Min Temperature 38 °F 40 °F 27 °F (1977)
Degree Days  
Heating Degree Days 5 7  
Month to date heating degree days 22 29  
Since 1 July heating degree days 2465 2390  
Cooling Degree Days 0 0  
Month to date cooling degree days 0 0  
Year to date cooling degree days 2 1  
Growing Degree Days 9 (Base 50)    
Moisture  
Dew Point 12 °F    
Average Humidity 23    
Maximum Humidity 40    
Minimum Humidity 5    
Precipitation  
Precipitation 0.00 in 0.01 in 0.16 in (2004)
Month to date precipitation 0.00 0.03  
Year to date precipitation 0.86 1.92  
Sea Level Pressure  
Sea Level Pressure 29.97 in    
Wind  
Wind Speed 6 mph (East)    
Max Wind Speed 14 mph    
Max Gust Speed 17 mph    
Visibility 10 miles    
Events      
T = Trace of Precipitation, MM = Missing Value Source: NWS Daily Summary

Daily Weather History Graph

Daily Weather History Graph

Search for Another Location

Airport:

Trip Planner

Search our weather history database for the weather conditions in past years. The results will help you decide how hot, cold, wet, or windy it might be!

Date:

Astronomy

Apr. 04, 2013 Rise Set
Actual Time 6:02 AM MST 6:40 PM MST
Civil Twilight 5:38 AM MST 7:04 PM MST
Nautical Twilight 5:09 AM MST 7:33 PM MST
Astronomical Twilight 4:40 AM MST 8:02 PM MST
Moon 2:11 AM MST (4/4) 1:21 PM MST (4/4)
Length of Visible Light 13h 26m
Length of Day
12h 37m
Waning Crescent, 32% of the Moon is Illuminated
Apr 4
Waning Crescent
Apr 10
New
Apr 18
First Quarter
Apr 25
Full
May 2
Last Quarter

Hourly Weather History & Observations

Time (MST) Temp. Windchill Dew Point Humidity Pressure Visibility Wind Dir Wind Speed Gust Speed Precip Events Conditions
12:56 AM 48.9 °F - 16.0 °F 27% 29.99 in 10.0 mi North 11.5 mph - N/A   Clear
1:56 AM 48.0 °F - 17.1 °F 29% 29.99 in 10.0 mi SSW 6.9 mph - N/A   Clear
2:56 AM 45.0 °F 40.1 °F 17.1 °F 33% 30.00 in 10.0 mi NW 9.2 mph - N/A   Clear
3:56 AM 45.0 °F 41.2 °F 18.0 °F 34% 30.00 in 10.0 mi NE 6.9 mph - N/A   Clear
4:56 AM 46.0 °F 42.5 °F 19.0 °F 34% 30.01 in 10.0 mi North 6.9 mph - N/A   Clear
5:56 AM 37.9 °F - 15.1 °F 39% 30.06 in 10.0 mi Calm Calm - N/A   Clear
6:56 AM 51.1 °F - 19.9 °F 29% 30.06 in 10.0 mi East 4.6 mph - N/A   Clear
7:56 AM 55.0 °F - 19.9 °F 25% 30.07 in 10.0 mi WSW 3.5 mph - N/A   Clear
8:56 AM 63.0 °F - 24.1 °F 23% 30.07 in 10.0 mi West 5.8 mph - N/A   Clear
9:56 AM 70.0 °F - 23.0 °F 17% 30.04 in 10.0 mi ESE 5.8 mph - N/A   Clear
10:56 AM 75.0 °F - 18.0 °F 12% 30.03 in 10.0 mi Variable 3.5 mph - N/A   Clear
11:56 AM 75.9 °F - 15.1 °F 10% 30.01 in 10.0 mi Variable 3.5 mph 16.1 mph N/A   Clear
12:56 PM 79.0 °F - 12.9 °F 8% 29.97 in 10.0 mi SSE 9.2 mph 17.3 mph N/A   Clear
1:56 PM 80.1 °F - 10.0 °F 7% 29.94 in 10.0 mi SSE 8.1 mph 17.3 mph N/A   Clear
2:56 PM 79.0 °F - 5.0 °F 6% 29.93 in 10.0 mi Variable 4.6 mph - N/A   Clear
3:56 PM 81.0 °F - 5.0 °F 5% 29.91 in 10.0 mi SE 8.1 mph - N/A   Clear
4:56 PM 79.0 °F - 5.0 °F 6% 29.90 in 10.0 mi Calm Calm - N/A   Clear
5:56 PM 78.1 °F - 5.0 °F 6% 29.92 in 10.0 mi ESE 6.9 mph - N/A   Clear
6:56 PM 73.0 °F - 5.0 °F 7% 29.90 in 10.0 mi East 5.8 mph - N/A   Clear
7:56 PM 68.0 °F - 3.9 °F 8% 29.91 in 10.0 mi East 5.8 mph - N/A   Clear
8:56 PM 66.9 °F - 5.0 °F 9% 29.91 in 10.0 mi East 8.1 mph - N/A   Clear
9:56 PM 63.0 °F - 3.0 °F 9% 29.91 in 10.0 mi Calm Calm - N/A   Clear
10:56 PM 62.1 °F - 7.0 °F 11% 29.91 in 10.0 mi North 8.1 mph - N/A   Clear
11:56 PM 62.1 °F - 9.0 °F 12% 29.91 in 10.0 mi North 10.4 mph - N/A   Clear